Hazlehurst, GA

9:47 PM EST on December 13, 2019 (GMT -0500)
Hazlehurst

Weather History for KAZE - August, 2019

Change the Weather History Date:

Sunday, August 4, 2019

  Actual Average Record
Temperature  
Mean Temperature 85 °F -  
Max Temperature 95 °F 89 °F 95 °F (2015)
Min Temperature 75 °F 72 °F 72 °F (2018)
Cooling Degree Days 20    
Growing Degree Days 35 (Base 50)    
Moisture  
Dew Point 70 °F    
Average Humidity 68    
Maximum Humidity 89    
Minimum Humidity 34    
Precipitation  
Precipitation 0.00 in - - ()
Sea Level Pressure  
Sea Level Pressure 29.95 in    
Wind  
Wind Speed 2 mph (NNW)    
Max Wind Speed 15 mph    
Max Gust Speed 21 mph    
Visibility 10 miles    
Events Rain    
Averages and records for this station are not official NWS values.
T = Trace of Precipitation, MM = Missing Value Source: NWS Daily Summary

Daily Weather History Graph

Daily Weather History Graph

Search for Another Location

Airport or City:

Astronomy

Aug. 04, 2019 Rise Set
Actual Time 6:48 AM EDT 8:25 PM EDT
Civil Twilight 6:21 AM EDT 8:51 PM EDT
Nautical Twilight 5:49 AM EDT 9:22 PM EDT
Astronomical Twilight 5:16 AM EDT 9:56 PM EDT
Moon 10:39 AM EDT (8/4) 11:18 PM EDT (8/4)
Length of Visible Light 14h 29m
Length of Day
13h 37m
Waxing Crescent, 18% of the Moon is Illuminated
Aug 4
Waxing Crescent
Aug 7
First Quarter
Aug 15
Full
Aug 23
Last Quarter
Aug 30
New

Hourly Weather History & Observations

Time (EDT) Temp. Heat Index Dew Point Humidity Pressure Visibility Wind Dir Wind Speed Gust Speed Precip Events Conditions
12:10 AM 80.4 °F 83.9 °F 70.5 °F 72% 29.96 in 10.0 mi SSE 4.6 mph - N/A   Clear
12:30 AM 80.1 °F 83.4 °F 70.7 °F 73% 29.96 in 10.0 mi Calm Calm - N/A   Clear
12:50 AM 79.7 °F - 70.7 °F 74% 29.96 in 10.0 mi Calm Calm - N/A   Clear
1:10 AM 79.7 °F - 71.1 °F 75% 29.96 in 10.0 mi Calm Calm - N/A   Clear
1:30 AM 79.0 °F - 71.2 °F 77% 29.96 in 10.0 mi Calm Calm - N/A   Clear
1:50 AM 78.8 °F - 71.6 °F 78% 29.97 in 10.0 mi SW 5.8 mph - N/A   Clear
2:10 AM 78.8 °F - 71.6 °F 78% 29.97 in 10.0 mi Calm Calm - N/A   Clear
2:30 AM 78.4 °F - 71.2 °F 78% 29.97 in 10.0 mi Calm Calm - N/A   Clear
2:50 AM 77.9 °F - 71.4 °F 80% 29.97 in 10.0 mi Calm Calm - N/A   Clear
3:10 AM 77.2 °F - 71.2 °F 82% 29.96 in 10.0 mi Calm Calm - N/A   Clear
3:30 AM 76.5 °F - 71.1 °F 83% 29.96 in 10.0 mi Calm Calm - N/A   Clear
3:50 AM 76.6 °F - 71.6 °F 84% 29.95 in 10.0 mi Calm Calm - N/A   Clear
4:10 AM 76.1 °F - 71.2 °F 85% 29.95 in 10.0 mi Calm Calm - N/A   Clear
4:30 AM 76.1 °F - 71.2 °F 85% 29.95 in 10.0 mi Calm Calm - N/A   Clear
4:50 AM 76.1 °F - 71.2 °F 85% 29.95 in 10.0 mi Calm Calm - N/A   Clear
5:10 AM 75.6 °F - 71.2 °F 86% 29.95 in 10.0 mi Calm Calm - N/A   Clear
5:30 AM 75.4 °F - 71.6 °F 88% 29.95 in 10.0 mi Calm Calm - N/A   Clear
5:50 AM 75.2 °F - 71.2 °F 87% 29.95 in 10.0 mi Calm Calm - N/A   Clear
6:10 AM 75.6 °F - 71.6 °F 87% 29.96 in 10.0 mi Calm Calm - N/A   Clear
6:30 AM 75.4 °F - 71.6 °F 88% 29.97 in 10.0 mi Calm Calm - N/A   Clear
6:50 AM 75.2 °F - 71.6 °F 89% 29.97 in 10.0 mi Calm Calm - N/A   Clear
7:10 AM 75.2 °F - 71.6 °F 89% 29.97 in 10.0 mi Calm Calm - N/A   Clear
7:30 AM 75.7 °F - 71.8 °F 87% 29.97 in 10.0 mi Calm Calm - N/A   Clear
7:55 AM 77.0 °F - 71.6 °F 83% 29.98 in 10.0 mi Calm Calm - N/A   Clear
8:10 AM 78.6 °F - 71.8 °F 79% 29.98 in 10.0 mi Calm Calm - N/A   Clear
8:30 AM 79.5 °F - 71.6 °F 77% 29.98 in 10.0 mi Calm Calm - N/A   Clear
8:50 AM 81.1 °F 85.6 °F 72.0 °F 74% 29.99 in 10.0 mi Calm Calm - N/A   Scattered Clouds
9:10 AM 82.8 °F 87.9 °F 72.0 °F 70% 29.98 in 10.0 mi Calm Calm - N/A   Scattered Clouds
9:30 AM 83.5 °F 88.2 °F 71.1 °F 66% 29.99 in 10.0 mi Calm Calm - N/A   Scattered Clouds
9:50 AM 83.8 °F 88.3 °F 70.3 °F 64% 29.99 in 10.0 mi Calm Calm - N/A   Clear
10:10 AM 85.5 °F 90.4 °F 70.7 °F 61% 29.99 in 10.0 mi Calm Calm - N/A   Clear
10:30 AM 87.1 °F 92.0 °F 70.3 °F 57% 29.99 in 10.0 mi Calm Calm - N/A   Clear
10:50 AM 87.4 °F 92.3 °F 70.2 °F 56% 29.99 in 10.0 mi Calm Calm - N/A   Clear
11:10 AM 89.1 °F 94.6 °F 70.5 °F 54% 29.99 in 10.0 mi Calm Calm - N/A   Clear
11:30 AM 90.1 °F 94.4 °F 68.7 °F 49% 29.99 in 10.0 mi Calm Calm - N/A   Clear
11:50 AM 90.9 °F 94.4 °F 67.6 °F 46% 29.98 in 10.0 mi SSW 6.9 mph - N/A   Scattered Clouds
12:10 PM 90.5 °F 94.2 °F 67.5 °F 47% 29.97 in 10.0 mi Calm Calm - N/A   Scattered Clouds
12:30 PM 91.6 °F 95.2 °F 67.3 °F 45% 29.97 in 10.0 mi SW 5.8 mph - N/A   Clear
12:50 PM 91.0 °F 94.3 °F 66.9 °F 45% 29.96 in 10.0 mi Calm Calm - N/A   Scattered Clouds
1:10 PM 92.7 °F 95.3 °F 66.0 °F 41% 29.95 in 10.0 mi West 5.8 mph - N/A   Scattered Clouds
1:30 PM 93.0 °F 95.9 °F 65.8 °F 41% 29.94 in 10.0 mi WNW 5.8 mph - N/A   Scattered Clouds
1:50 PM 92.1 °F 94.8 °F 66.2 °F 42% 29.94 in 10.0 mi WNW 6.9 mph - N/A   Mostly Cloudy
2:10 PM 94.3 °F 95.8 °F 63.7 °F 36% 29.93 in 10.0 mi WSW 5.8 mph - N/A   Scattered Clouds
2:30 PM 93.0 °F 95.0 °F 64.9 °F 39% 29.92 in 10.0 mi West 5.8 mph - N/A   Scattered Clouds
2:50 PM 95.0 °F 96.0 °F 62.8 °F 34% 29.92 in 10.0 mi WSW 6.9 mph - N/A   Scattered Clouds
3:10 PM 93.4 °F 95.6 °F 64.9 °F 39% 29.92 in 10.0 mi North 6.9 mph - N/A   Mostly Cloudy
3:30 PM 91.4 °F 94.5 °F 66.7 °F 44% 29.91 in 10.0 mi North 11.5 mph 17.3 mph N/A   Mostly Cloudy
3:50 PM 92.3 °F 95.6 °F 67.1 °F 43% 29.91 in 10.0 mi North 15.0 mph 20.7 mph N/A   Scattered Clouds
4:10 PM 89.4 °F 92.7 °F 67.6 °F 48% 29.91 in 10.0 mi NNW 11.5 mph 16.1 mph N/A   Clear
4:30 PM 86.7 °F 92.5 °F 71.4 °F 60% 29.91 in 7.0 mi North 5.8 mph - N/A Rain Light Rain
4:50 PM 87.8 °F 92.2 °F 69.1 °F 54% 29.92 in 10.0 mi NW 6.9 mph - N/A   Mostly Cloudy
5:10 PM 87.1 °F 90.2 °F 67.6 °F 52% 29.93 in 10.0 mi NNE 5.8 mph - N/A   Mostly Cloudy
5:30 PM 84.2 °F 88.7 °F 70.2 °F 63% 29.93 in 10.0 mi ENE 4.6 mph - N/A   Overcast
5:50 PM 84.4 °F 88.7 °F 70.2 °F 62% 29.94 in 10.0 mi North 4.6 mph - N/A   Overcast
6:10 PM 83.1 °F 86.8 °F 69.4 °F 63% 29.94 in 10.0 mi NNE 5.8 mph - N/A   Mostly Cloudy
6:30 PM 82.6 °F 86.1 °F 69.4 °F 64% 29.93 in 10.0 mi NNE 6.9 mph - N/A   Scattered Clouds
6:50 PM 81.7 °F 85.4 °F 70.0 °F 68% 29.93 in 10.0 mi ENE 5.8 mph - N/A   Clear
7:10 PM 81.5 °F 84.9 °F 69.4 °F 67% 29.93 in 10.0 mi East 3.5 mph - N/A   Clear
7:30 PM 81.5 °F 84.8 °F 69.1 °F 66% 29.94 in 10.0 mi SE 3.5 mph - N/A   Clear
7:50 PM 81.0 °F 84.1 °F 68.9 °F 67% 29.94 in 10.0 mi SSE 3.5 mph - N/A   Clear
8:10 PM 79.9 °F - 68.9 °F 69% 29.94 in 10.0 mi Calm Calm - N/A   Clear
8:30 PM 79.3 °F - 68.9 °F 70% 29.95 in 10.0 mi Calm Calm - N/A   Clear
8:50 PM 78.8 °F - 68.9 °F 72% 29.95 in 10.0 mi Calm Calm - N/A   Clear
9:10 PM 78.3 °F - 69.1 °F 73% 29.95 in 10.0 mi Calm Calm - N/A   Clear
9:30 PM 78.3 °F - 69.4 °F 74% 29.95 in 10.0 mi Calm Calm - N/A   Clear
9:50 PM 77.9 °F - 69.3 °F 75% 29.95 in 10.0 mi Calm Calm - N/A   Clear
10:10 PM 77.5 °F - 69.6 °F 76% 29.96 in 10.0 mi Calm Calm - N/A   Clear
10:30 PM 77.2 °F - 69.8 °F 78% 29.96 in 10.0 mi Calm Calm - N/A   Clear
10:50 PM 76.6 °F - 70.0 °F 80% 29.95 in 10.0 mi Calm Calm - N/A   Clear
11:10 PM 76.3 °F - 70.2 °F 81% 29.96 in 10.0 mi Calm Calm - N/A   Clear
11:30 PM 76.1 °F - 70.2 °F 82% 29.96 in 10.0 mi Calm Calm - N/A   Clear
11:50 PM 76.1 °F - 70.2 °F 82% 29.96 in 10.0 mi Calm Calm - N/A   Clear